Location: Chochol
(49.7771°N, 14.9780°E)
Time: 16:38:10
(UTC+00:00)

Cosmos 1697 Rocket - Pass Details

Date: 09 April 2020
Orbit: 831 x 845 km, 71.0° (Epoch: 24 May)

Event Time Altitude Azimuth Distance (km) Brightness Sun altitude
Rises 21:06:30 0° 327° (NNW) 3,413 7.2 -27.0°
Reaches altitude 10° 21:09:01 10° 322° (NW) 2,475 6.1 -27.2°
Maximum altitude 21:14:26 47° 250° (WSW) 1,108 3.3 -27.7°
Enters shadow 21:14:49 46° 238° (WSW) 1,119 3.2 -27.7°
